CW9688 Weather Reports


Display with metric or nautical units.
time (UTC)temp
F
wind
direction
speed
MPH
gust
MPH
rain 1hr
in
rain 24hr
in
rain mn
in
humidity
%
barometer
mb
20260504045805 60 212 2.0 3.0 0.00 0.00 0.00 30 1010.4
20260504044805 62 229 2.0 3.0 0.00 0.00 0.00 28 1010.4
20260504043804 62 219 3.0 6.0 0.00 0.00 0.00 28 1010.4
20260504043305 62 206 3.0 5.0 0.00 0.00 0.00 28 1010.4
20260504042804 62 220 3.0 6.0 0.00 0.00 0.00 28 1010.4
20260504041304 63 209 3.0 6.0 0.00 0.00 0.00 28 1010.4
20260504040804 63 202 3.0 6.0 0.00 0.00 0.00 28 1010.4
20260504035805 63 207 3.0 6.0 0.00 0.00 0.00 28 1010.4
20260504034804 63 217 3.0 6.0 0.00 0.00 0.00 27 1010.4
20260504034305 62 211 3.0 6.0 0.00 0.00 0.00 28 1010.4
20260504033805 62 208 2.0 5.0 0.00 0.00 0.00 28 1010.4
20260504031804 63 204 4.0 8.0 0.00 0.00 0.00 28 1010.4
20260504031304 63 194 3.0 7.0 0.00 0.00 0.00 28 1010.4
20260504024805 64 230 5.0 7.0 0.00 0.00 0.00 26 1010.4
20260504024304 64 167 4.0 7.0 0.00 0.00 0.00 27 1010.4
20260504023804 64 197 3.0 8.0 0.00 0.00 0.00 27 1010.4
20260504022805 64 188 3.0 5.0 0.00 0.00 0.00 26 1010.4
20260504022305 64 197 4.0 7.0 0.00 0.00 0.00 26 1010.4
20260504021305 64 173 5.0 7.0 0.00 0.00 0.00 26 1010.4
20260504020805 64 199 3.0 5.0 0.00 0.00 0.00 26 1010.4
20260504020304 64 233 2.0 5.0 0.00 0.00 0.00 26 1010.4
20260504015805 65 219 1.0 2.0 0.00 0.00 0.00 25 1010.4
20260504015305 66 355 0.0 3.0 0.00 0.00 0.00 25 1010.4
20260504014804 66 331 2.0 3.0 0.00 0.00 0.00 25 1010.4
20260504014305 67 224 1.0 3.0 0.00 0.00 0.00 23 1010.4
20260504013805 67 236 2.0 7.0 0.00 0.00 0.00 22 1010.4
20260504013304 67 290 9.0 17.0 0.00 0.00 0.00 21 1010.4
20260504012305 67 318 7.0 12.0 0.00 0.00 0.00 22 1010.4
20260504010804 66 323 2.0 6.0 0.00 0.00 0.00 23 1010.4
20260504010304 66 341 3.0 7.0 0.00 0.00 0.00 25 1010.4
20260504005805 66 40 5.0 8.0 0.00 0.00 0.00 25 1010.4
20260504002305 67 347 7.0 14.0 0.00 0.00 0.00 26 1010.4
20260504001304 68 305 13.0 25.0 0.00 0.00 0.00 23 1010.4
20260504000804 68 260 3.0 5.0 0.00 0.00 0.00 22 1010.4
20260504000306 68 227 4.0 6.0 0.00 0.00 0.00 22 1010.4
20260503235804 68 249 2.0 3.0 0.00 0.00 0.00 22 1010.4
20260503234805 69 173 2.0 5.0 0.00 0.00 0.00 21 1010.4
20260503234305 70 3 0.0 1.0 0.00 0.00 0.00 21 1010.4
20260503232305 70 253 2.0 5.0 0.00 0.00 0.00 19 1010.4
20260503230804 69 355 3.0 5.0 0.00 0.00 0.00 20 1010.4
20260503225805 70 335 2.0 9.0 0.00 0.00 0.00 19 1010.4
20260503225305 70 335 5.0 12.0 0.00 0.00 0.00 18 1010.4
20260503224305 71 340 5.0 9.0 0.00 0.00 0.00 18 1010.4
20260503223304 71 289 7.0 12.0 0.00 0.00 0.00 17 1010.4
20260503222804 71 43 10.0 22.0 0.00 0.00 0.00 18 1010.4
20260503222305 72 339 7.0 13.0 0.00 0.00 0.00 17 1010.4
20260503221305 72 263 4.0 13.0 0.00 0.00 0.00 16 1010.4
20260503220304 72 265 11.0 20.0 0.00 0.00 0.00 15 1010.4
20260503215804 72 242 10.0 21.0 0.00 0.00 0.00 16 1010.4
20260503213304 73 185 10.0 18.0 0.00 0.00 0.00 16 1010.4
20260503212804 73 243 5.0 10.0 0.00 0.00 0.00 15 1010.4
20260503212305 73 245 3.0 5.0 0.00 0.00 0.00 15 1010.4
20260503210804 73 328 6.0 13.0 0.00 0.00 0.00 15 1010.4
20260503205805 73 309 7.0 12.0 0.00 0.00 0.00 15 1010.4
20260503205305 73 297 7.0 18.0 0.00 0.00 0.00 15 1010.4
20260503204304 76 320 6.0 13.0 0.00 0.00 0.00 14 1010.4
20260503203804 76 349 9.0 16.0 0.00 0.00 0.00 15 1010.4
20260503203305 76 326 6.0 15.0 0.00 0.00 0.00 14 1010.4
20260503200805 76 308 7.0 15.0 0.00 0.00 0.00 15 1010.4
20260503195805 75 321 6.0 12.0 0.00 0.00 0.00 14 1010.4
20260503194805 75 295 5.0 14.0 0.00 0.00 0.00 14 1010.4
20260503194304 74 355 9.0 13.0 0.00 0.00 0.00 15 1010.4
20260503193804 74 352 7.0 12.0 0.00 0.00 0.00 15 1010.4
20260503192805 77 0 11.0 18.0 0.00 0.00 0.00 14 1010.4
20260503191805 77 310 13.0 20.0 0.00 0.00 0.00 14 1010.4
20260503191304 75 348 10.0 20.0 0.00 0.00 0.00 15 1010.4
20260503190805 76 343 11.0 18.0 0.00 0.00 0.00 14 1010.4
20260503190304 75 324 8.0 14.0 0.00 0.00 0.00 16 1010.4
20260503185305 77 266 10.0 15.0 0.00 0.00 0.00 13 1010.4
20260503184805 76 336 10.0 20.0 0.00 0.00 0.00 13 1010.4
20260503184305 77 311 10.0 20.0 0.00 0.00 0.00 14 1010.4
20260503183304 76 298 10.0 17.0 0.00 0.00 0.00 14 1010.4
20260503182804 76 304 7.0 15.0 0.00 0.00 0.00 13 1010.4
20260503182305 75 265 10.0 16.0 0.00 0.00 0.00 13 1010.4
20260503181305 75 269 5.0 15.0 0.00 0.00 0.00 14 1010.4
20260503180305 74 317 9.0 16.0 0.00 0.00 0.00 14 1010.4
20260503175804 74 300 8.0 14.0 0.00 0.00 0.00 16 1010.4
20260503172804 71 291 4.0 12.0 0.00 0.00 0.00 17 1010.4
20260503171805 70 261 7.0 13.0 0.00 0.00 0.00 17 1010.4
20260503150805 59 164 2.0 7.0 0.00 0.00 0.00 33 1010.3
20260503130804 49 168 0.0 3.0 0.00 0.00 0.00 47 1010.3
20260503090304 46 165 3.0 5.0 0.00 0.00 0.00 37 1010.3
20260503081304 45 215 1.0 1.0 0.00 0.00 0.00 36 1010.3
20260503080305 45 215 1.0 2.0 0.00 0.00 0.00 36 1010.3
20260503072306 45 167 1.0 2.0 0.00 0.00 0.00 41 1010.3
20260503071804 45 167 1.0 3.0 0.00 0.00 0.00 42 1010.3
20260503070304 45 238 0.0 2.0 0.00 0.00 0.00 43 1010.3